Theta_e
321 321 322 321 322 323 324 324 324 321 322 321 320 328 328 328 330 329 333 335 332 335 336 338 337 336 332 332 329 327 328 327 324 325 326 328 326 325 322 317 315 315 314
322 321 321 321 321 323 324 323 324 324 324 321 325 328 329 329 330 328 330 333 333 335 337 338 336 334 333 332 329 328 327 324 326 325 329 327 326 323 319 318 317 315 309
324 320 322 322 321 322 324 323 324 325 324 322 326 327 328 329 330 329 330 334 335 338 338 333 332 332 334 328 327 328 327 328 326 328 326 326 325 319 319 320 317 311 308
322 319 321 323 321 322 322 323 324 326 325 326 324 327 330 330 331 328 330 335 335 337 335 334 333 334 329 329 327 326 330 326 328 326 326 326 321 321 320 319 313 309 308
321 319 321 323 321 322 321 322 324 326 325 326 326 325 329 330 330 329 331 335 334 336 336 335 333 331 330 326 327 332 327 329 325 326 326 323 322 322 322 319 312 309 308
323 319 321 323 321 323 322 323 324 324 326 323 324 328 329 329 328 328 332 335 334 335 334 333 332 334 328 328 331 326 328 325 324 326 326 325 323 324 323 315 311 309 309
323 321 321 323 322 322 323 323 325 326 325 327 326 323 328 329 326 330 336 332 335 335 332 332 332 330 328 327 327 326 332 326 324 326 326 324 325 325 321 313 310 310 310
325 322 322 323 322 322 323 324 326 326 326 327 328 328 330 328 330 332 334 333 333 334 332 331 331 328 326 327 327 328 327 325 326 325 326 326 326 326 318 312 310 310 311
324 323 324 324 322 322 321 325 325 326 326 328 329 330 329 328 331 334 334 334 332 331 330 328 330 327 328 326 326 328 327 325 325 326 327 326 327 324 315 311 310 310 311
324 324 323 323 323 323 323 325 325 325 327 328 329 329 325 328 332 332 333 332 332 332 331 329 329 325 327 326 328 332 326 325 325 326 327 327 327 318 313 310 310 311 309
325 323 324 324 326 324 324 325 326 326 324 327 329 328 329 331 332 331 331 331 332 331 329 329 328 327 327 328 330 328 326 325 326 327 327 327 322 315 312 310 311 310 309
325 325 323 323 326 326 323 324 324 324 323 327 327 326 328 330 331 331 330 328 329 328 328 327 327 327 327 328 330 327 325 325 327 327 327 327 318 312 310 312 310 309 309
325 324 324 321 325 326 323 324 324 325 324 325 327 330 328 330 329 329 330 329 328 326 328 328 328 327 329 328 328 327 327 328 327 326 327 324 314 311 312 311 309 310 308
325 323 324 321 325 326 322 323 325 326 325 325 327 329 330 327 329 327 330 329 328 330 328 328 326 329 329 328 326 327 328 327 326 327 324 313 310 312 311 310 309 310 308
324 324 323 321 321 321 324 325 326 325 324 329 330 330 330 329 329 330 330 330 329 329 329 329 329 329 328 327 326 326 328 328 327 323 315 312 312 312 310 309 310 310 309
326 325 325 325 325 325 325 325 326 327 329 329 329 329 330 329 328 329 329 329 328 330 328 329 328 327 327 327 325 327 329 328 325 323 320 313 312 311 309 311 311 310 309
326 327 327 326 325 325 325 326 326 325 325 326 327 327 329 330 329 330 329 329 329 328 327 326 327 327 327 327 328 328 328 325 321 319 313 312 313 311 309 312 312 311 310
326 326 326 325 325 326 326 326 325 324 326 326 326 325 326 329 330 329 328 328 327 326 327 328 328 328 327 329 328 327 324 318 314 314 314 313 311 311 312 313 313 314 314
327 327 326 324 325 326 324 324 325 325 325 326 326 327 328 329 329 329 328 328 327 326 326 327 327 327 329 328 324 321 317 316 315 318 320 318 316 315 314 315 315 315 316
328 328 327 326 325 326 326 326 324 323 324 325 327 328 328 327 328 327 327 327 326 327 326 327 326 325 327 326 318 312 312 315 313 315 316 316 317 316 316 315 316 315 315
327 328 328 327 327 327 327 326 326 327 326 325 328 327 328 328 327 326 326 327 328 327 325 324 324 325 322 316 311 310 313 316 318 317 318 320 320 320 320 320 319 317 316
327 328 329 328 328 329 329 329 328 328 327 327 327 327 327 328 327 327 326 327 327 327 325 322 320 317 314 312 313 315 316 318 321 320 322 322 322 322 321 320 318 319 318
323 322 328 329 329 329 328 327 327 327 327 328 327 327 326 327 327 326 326 324 325 327 322 321 321 321 321 322 322 322 322 322 322 324 324 323 322 320 320 321 321 321 320
323 319 324 326 326 328 329 329 328 328 328 328 328 328 327 327 327 325 323 322 324 323 322 326 322 322 323 322 322 323 324 325 325 325 322 321 319 320 314 311 312 317 315
322 319 317 319 322 325 326 320 321 325 326 325 326 328 326 320 320 320 319 321 323 322 324 324 325 324 324 325 324 322 322 319 315 313 310 309 311 311 313 316 317 313 310
322 320 319 319 320 323 323 322 320 322 324 322 319 317 323 317 314 316 314 319 317 320 320 320 316 314 313 313 315 315 315 314 314 314 313 314 315 313 309 310 309 305 303
Wind_Speed
13 11 11 11 13 13 13 16 20 21 17 14 21 15 13 21 16 19 20 16 21 26 26 29 31 32 34 29 29 23 24 22 22 21 21 19 16 14 11 7 6 5 4
15 13 10 11 11 15 14 15 20 20 19 19 21 16 17 20 17 18 20 19 21 28 28 28 25 25 31 29 28 25 24 23 23 22 19 17 14 12 9 7 5 4 5
17 15 11 10 9 14 19 16 17 19 19 20 20 20 20 21 16 20 21 19 23 27 30 29 24 23 29 33 28 26 24 24 23 20 18 16 13 10 7 5 4 5 7
17 15 11 11 8 13 21 18 20 20 20 19 23 22 21 17 18 22 22 21 24 27 29 28 27 34 36 32 29 27 25 25 21 19 16 14 12 8 6 4 5 6 7
13 14 11 9 8 10 19 20 23 22 22 21 21 20 24 19 19 20 23 22 22 25 28 29 35 37 35 32 30 29 27 22 20 18 15 13 9 6 4 3 6 7 6
10 14 9 6 6 8 15 20 21 23 17 16 18 17 25 17 18 21 21 24 23 24 26 32 32 33 37 33 32 28 23 20 18 17 14 11 7 3 2 4 7 6 6
8 12 9 7 8 10 16 18 20 20 17 20 21 19 14 14 18 22 26 28 25 26 29 32 29 36 38 36 34 30 22 19 17 14 13 9 4 1 2 6 6 6 4
7 12 8 7 9 10 15 18 20 18 19 22 24 25 12 15 17 24 28 30 27 27 30 30 28 36 41 35 33 28 23 19 18 16 11 8 4 1 4 6 6 4 2
4 8 7 10 12 12 13 14 19 18 21 22 21 16 11 10 24 29 30 31 31 30 30 34 32 39 37 39 36 24 22 21 17 14 11 7 2 2 6 7 5 2 1
4 8 12 13 10 10 14 15 18 18 20 21 19 12 14 27 16 18 33 32 33 31 32 35 37 40 35 37 31 25 22 17 16 13 9 4 2 6 7 6 4 2 4
4 11 14 13 12 14 13 14 16 17 16 19 19 18 18 27 23 24 29 37 33 35 34 35 37 38 35 32 25 22 19 17 12 9 7 4 5 7 7 5 3 5 5
5 13 16 16 14 13 14 12 11 21 15 22 18 19 18 28 25 33 33 31 31 28 28 31 32 31 31 31 22 19 15 11 11 9 8 7 7 8 7 4 5 6 5
5 15 17 20 17 12 16 14 13 15 17 18 17 18 19 25 20 30 36 30 30 30 28 27 29 29 25 32 23 17 12 12 10 8 7 8 9 9 7 6 6 6 6
9 12 15 18 14 12 15 13 16 16 18 18 21 21 25 22 23 32 37 39 33 23 31 27 29 25 22 25 24 17 9 10 9 9 8 10 10 9 8 6 7 8 9
11 10 13 15 15 13 15 17 19 21 23 23 24 21 23 28 33 39 37 35 40 25 25 32 28 27 26 26 25 14 9 8 9 9 10 10 10 9 7 8 9 9 12
8 10 12 14 17 20 20 20 19 21 23 23 23 26 26 26 34 35 39 37 34 34 21 34 27 27 25 25 23 15 13 10 9 8 8 10 9 8 9 10 11 13 15
12 14 13 18 19 21 22 22 20 20 20 22 22 22 23 29 31 30 35 31 26 26 30 26 21 18 19 22 19 13 12 9 8 9 10 9 10 11 11 12 12 14 16
15 15 15 20 19 22 22 21 23 23 22 21 19 21 25 28 36 33 31 28 27 19 22 23 20 15 12 13 10 10 10 10 8 7 9 10 10 10 11 14 16 18 20
15 16 17 19 20 21 19 19 21 20 20 17 14 19 27 33 28 24 26 29 25 20 16 14 17 16 14 13 11 12 9 10 10 7 8 10 10 13 15 19 20 22 25
15 16 16 16 17 16 15 15 17 17 12 15 14 25 28 28 31 28 24 26 22 15 13 14 15 15 17 14 11 12 11 10 6 6 10 12 16 16 18 18 20 22 23
18 16 15 17 17 14 13 16 18 18 12 16 18 23 24 29 29 28 26 25 19 16 16 13 13 18 16 16 11 9 10 9 10 13 15 13 14 15 17 19 20 20 20
18 14 14 15 15 16 18 17 19 19 19 20 21 22 22 27 28 24 21 17 14 15 14 13 14 12 10 8 7 8 8 10 12 8 15 15 19 24 22 22 23 24 26
13 12 14 17 20 20 20 19 22 20 20 21 26 28 25 26 25 20 15 17 15 15 10 9 6 6 4 3 2 6 9 12 13 13 20 24 23 25 22 25 23 26 27
10 12 17 17 19 21 19 17 16 16 20 21 22 21 23 23 21 20 20 16 16 16 15 11 15 9 8 10 11 13 16 14 14 15 17 18 16 14 10 17 21 18 20
10 13 16 18 20 23 18 18 19 21 21 19 16 17 19 17 17 16 18 22 18 18 14 12 12 15 10 11 12 15 16 16 17 15 16 12 15 22 24 25 24 25 22
13 10 12 14 16 19 18 18 19 21 19 17 15 15 16 17 17 17 19 20 17 18 13 14 12 9 7 5 5 5 6 5 7 12 13 22 23 21 19 15 21 24 24
Wind_Direction
310 284 283 275 268 244 235 224 214 216 210 211 192 198 203 184 190 201 201 204 193 195 200 193 183 183 166 163 153 164 172 171 166 159 159 152 146 140 139 132 120 108 102
293 291 286 278 256 236 224 217 219 214 199 191 191 191 199 194 206 198 199 199 192 191 192 185 174 179 165 167 161 170 173 169 161 161 154 148 148 142 138 130 107 93 103
272 288 282 277 259 232 222 212 211 201 204 192 189 200 200 199 202 200 195 198 179 181 184 177 181 181 174 159 159 173 170 163 159 156 157 150 151 142 134 114 111 115 120
264 269 271 275 268 242 221 210 200 195 202 199 197 201 200 198 196 189 188 194 180 177 184 190 187 174 165 162 164 170 167 161 159 158 153 153 148 143 132 117 111 124 119
262 251 257 265 278 251 207 208 201 195 197 201 204 216 202 191 190 183 189 184 181 189 189 187 178 168 166 164 165 166 161 159 161 158 158 153 147 151 115 104 133 131 125
257 233 240 251 246 210 193 195 199 203 203 195 181 188 195 182 191 192 190 175 178 183 179 167 172 177 165 166 163 158 155 166 164 163 158 158 153 140 92 138 147 142 129
246 228 223 228 206 204 191 190 188 192 187 178 173 173 177 179 182 193 181 174 179 179 180 180 175 167 160 163 158 163 167 174 163 169 169 154 166 135 160 165 151 145 130
248 209 209 207 183 183 187 184 197 189 190 178 174 163 150 154 172 183 180 168 172 177 180 180 169 166 161 164 161 165 171 168 173 179 161 175 178 259 182 170 166 156 142
186 189 181 172 168 181 177 195 191 197 183 182 177 165 142 168 165 169 177 166 164 165 173 174 166 163 166 162 161 168 181 189 177 174 180 189 196 202 188 182 169 171 281
149 167 161 156 154 153 170 175 175 189 186 184 183 189 183 168 154 139 164 167 167 168 173 172 165 162 164 162 171 176 184 184 182 179 184 194 242 200 194 181 185 237 277
150 162 166 149 151 139 158 157 167 180 196 184 191 178 165 157 166 144 138 156 171 176 172 173 166 166 168 171 180 179 182 188 180 185 189 209 221 199 192 191 223 257 272
150 168 170 164 168 153 157 164 166 173 176 181 183 189 176 163 156 144 141 153 154 166 166 168 170 172 173 171 177 178 175 177 194 195 205 223 214 198 193 211 249 272 284
134 168 169 172 170 166 163 171 166 162 164 170 174 173 166 154 143 158 153 159 151 154 159 169 176 173 171 169 174 175 175 193 200 210 227 226 200 195 205 231 265 274 287
128 146 168 171 172 163 168 164 161 163 162 172 177 171 172 163 166 179 165 158 153 144 164 164 175 173 172 179 179 180 194 199 213 228 213 197 196 205 224 257 270 272 282
129 137 151 167 172 172 159 159 160 164 168 173 169 165 168 165 168 167 170 169 162 142 138 175 167 181 174 179 185 190 212 225 225 210 200 202 213 224 254 270 274 274 277
112 140 149 148 150 151 156 156 159 165 159 156 161 159 162 165 167 169 170 170 167 160 142 163 164 171 178 186 191 212 224 215 218 220 222 220 230 252 273 282 283 285 285
98 122 127 143 146 148 154 156 150 148 154 156 156 162 157 161 162 161 168 158 153 150 144 152 159 159 168 182 198 206 206 206 211 220 223 235 255 272 281 284 286 288 291
112 122 131 140 143 143 150 153 150 144 136 138 155 159 161 164 158 151 155 160 154 166 162 158 160 171 189 183 196 205 193 201 205 224 246 258 266 279 288 292 295 292 293
127 122 132 138 142 146 147 159 166 161 156 149 142 165 163 162 165 169 157 158 155 143 159 179 186 200 199 191 190 188 199 208 212 228 241 255 281 294 296 289 293 294 292
117 113 117 129 134 141 151 163 170 170 166 156 153 153 153 161 155 156 159 149 152 153 163 183 195 191 197 192 196 206 214 235 263 276 281 289 290 298 296 300 300 296 297
112 118 117 138 146 150 161 168 163 155 157 152 138 148 152 151 151 142 143 147 148 161 167 177 186 178 181 194 200 206 229 250 264 273 278 290 304 300 300 300 305 310 313
108 114 109 128 140 133 126 141 146 150 146 152 152 151 146 147 144 142 135 142 157 170 172 170 165 161 181 175 184 224 247 254 263 280 300 301 301 299 303 309 318 314 316
110 109 120 117 127 133 134 125 115 134 128 136 140 142 142 148 160 159 157 159 171 179 173 170 172 133 171 77 341 271 270 268 282 292 288 292 298 305 319 314 317 317 311
134 125 134 129 121 122 129 132 129 123 130 136 143 145 148 150 157 165 164 167 177 176 192 212 227 227 252 252 252 261 266 278 273 282 280 289 303 311 315 323 325 314 307
147 139 142 138 135 132 127 125 131 134 135 136 141 149 155 147 152 164 179 176 176 182 179 183 182 202 220 234 244 258 269 277 277 285 294 309 306 305 304 312 317 316 323
171 161 154 156 152 147 144 147 146 146 147 151 157 164 172 173 173 176 174 185 185 192 202 211 218 227 247 264 258 257 258 274 316 333 323 329 331 338 341 335 329 337 339